[[{"header":{"parameterUnit":"m.s-1","parameterCategory":2,"la1":30.2991,"la2":30.254,"lo1":-89.0895,"lo2":-89.0444,"dy":0.0017,"dx":0.0017,"nx":28,"ny":28,"refTime":"2024-07-31T03:00:00:Z","depth":"0","parameterNumber":2,"parameterNumberName":"U-component_of_CURRENTS"},"data":[0,0,0,0,0,0,0,0,0,0,0,0,0,0,0,0,0,0,0,0,0,0,0,0,0,0,0,0,0,0,0,0,0,0,0,0,0,0,0,0,0,0,0,0,0,0,0,0,0,0,0,0,0,0,0,0,0,0,0.3723,0.3724,0,0.3759,0.3759,0.376,0.3733,0.3732,0.3731,0.373,0.3691,0.369,0.369,0,0,0,0,0,0,0,0,0,0,0,0,0,0.3702,0.3702,0.3723,0.3724,0.3724,0.3759,0.3759,0.376,0.3733,0.3732,0.373,0.3729,0.3691,0.3691,0.369,0,0,0,0,0,0,0,0,0,0,0,0,0,0.372,0.3702,0.3723,0.3717,0.3717,0.3759,0.3759,0.376,0.3733,0.3732,0.373,0.3729,0.3691,0.3691,0.369,0.3717,0,0,0.369,0.3689,0,0,0,0,0,0,0,0,0.3718,0.372,0.3717,0.3718,0.3718,0.3742,0.3738,0.3743,0.3733,0.3724,0.373,0.3728,0.3704,0.3702,0.371,0.3715,0.3714,0.369,0.3689,0.3689,0.3689,0,0,0,0,0,0,0,0.3717,0.3719,0.3735,0.3718,0.3718,0.3737,0.3737,0.3739,0.3718,0.3725,0.3724,0.3732,0.3703,0.371,0.3708,0.3713,0.369,0.3689,0.3689,0.3689,0.3759,0.376,0,0,0,0,0,0,0.3716,0.3717,0.3734,0.3736,0.3717,0.3739,0.3739,0.3734,0.372,0.3718,0.3733,0.3731,0.3711,0.3709,0.3707,0.3773,0.3689,0.3689,0.3689,0.3757,0.3759,0.3761,0,0,0,0,0,0,0.3715,0.3716,0.3732,0.373,0.3734,0.374,0.3735,0.3735,0.3742,0.3727,0.3723,0.3741,0.371,0.3707,0.3705,0.3769,0.3689,0.3689,0.3754,0.3757,0.376,0.3882,0,0,0,0,0,0,0.3714,0.3715,0.3717,0.373,0.3734,0.376,0.3737,0.3737,0.3751,0.3748,0.3732,0.3727,0.3709,0.3706,0.3705,0.3768,0.3689,0.3752,0.3756,0.3759,0.3876,0.3889,0.39,0,0,0,0,0,0.3713,0.3724,0.3716,0.3719,0.3733,0.3761,0.3765,0.3764,0.3753,0.3763,0.3746,0.3728,0.373,0.3707,0.3705,0.377,0.375,0.3755,0.3759,0.387,0.3886,0.39,0,0,0,0,0,0,0.3718,0.3723,0.3714,0.3726,0.3742,0.3758,0.3775,0.3772,0.3771,0.3765,0.374,0.3735,0.3766,0.3743,0.3718,0.38,0.3743,0.3748,0.3828,0.3843,0.3855,0.3877,0.3688,0,0,0,0,0,0.372,0.3725,0.3736,0.3747,0.3757,0.3767,0.378,0.378,0.3782,0.378,0.3764,0.3761,0.3788,0.379,0.3794,0.3828,0.3845,0.3872,0.3884,0.3895,0.3912,0.4008,0.4031,0.3776,0.3776,0.3776,0,0,0.3727,0.3731,0.3734,0.3749,0.3762,0.3789,0.377,0.3797,0.3824,0.3777,0.3796,0.3799,0.3804,0.3849,0.3863,0.3835,0.3974,0.3901,0.391,0.3921,0.4015,0.404,0.4063,0.3779,0.3778,0.3778,0,0,0.3741,0.3746,0.3752,0.3776,0.3799,0.3812,0.3821,0.3835,0.3846,0.387,0.386,0.3899,0.39,0.3939,0.3958,0.4041,0.4036,0.4039,0.4122,0.4216,0.4238,0.4258,0.4303,0.4326,0.4046,0.4046,0.4046,0,0.3748,0.3752,0.3763,0.3785,0.3814,0.3824,0.3853,0.388,0.3888,0.3915,0.3885,0.396,0.396,0.4061,0.4093,0.4076,0.4103,0.4068,0.4236,0.4256,0.4274,0.4315,0.4339,0.4053,0.4052,0.4051,0.4051,0,0.3759,0.378,0.3797,0.3823,0.3858,0.389,0.393,0.3961,0.3976,0.4,0.4082,0.4098,0.4146,0.4169,0.4158,0.4298,0.4265,0.4243,0.4203,0.4308,0.4343,0.4366,0.4062,0.406,0.4058,0.4056,0,0,0.3723,0.3788,0.3793,0.3824,0.3883,0.3914,0.3985,0.4051,0.4115,0.414,0.4232,0.4298,0.4312,0.4336,0.4346,0.4429,0.4584,0.4396,0.4398,0.4449,0.4765,0.4535,0.4537,0.4595,0.46,0.4604,0.4734,0,0.3724,0.3769,0.3807,0.3875,0.3909,0.3974,0.405,0.4122,0.4179,0.4269,0.4336,0.4415,0.4377,0.4424,0.4507,0.4581,0.4651,0.4548,0.4648,0.465,0.4442,0.4559,0.4288,0.4363,0.4756,0.476,0.4763,0,0.3707,0.3747,0.3804,0.3918,0.3942,0.3996,0.413,0.4202,0.4343,0.4394,0.449,0.453,0.4675,0.4618,0.4799,0.4735,0.4759,0.4795,0.48,0.456,0.4462,0.4323,0.439,0.4302,0.4798,0.4795,0.4792,0,0.3662,0.3748,0.3793,0.3829,0.3956,0.4016,0.4096,0.4236,0.4323,0.4483,0.4557,0.4702,0.4785,0.4881,0.4923,0.4893,0.5094,0.5059,0.4865,0.4848,0.4621,0.4574,0.4619,0.5175,0.5175,0.5174,0.5174,0,0.3651,0.3697,0.378,0.3815,0.3909,0.4009,0.413,0.4236,0.4402,0.4507,0.4617,0.4712,0.4857,0.4959,0.4998,0.4991,0.5152,0.4904,0.4882,0.4648,0.4604,0.4514,0.4485,0.5179,0.5178,0.5177,0.5176,0,0.3625,0.3667,0.3734,0.3851,0.3891,0.397,0.4141,0.4243,0.4389,0.4537,0.4595,0.4772,0.4881,0.4969,0.5122,0.5046,0.4935,0.503,0.4709,0.4644,0.4319,0.4304,0.418,0.4072,0.4863,0.4858,0.4854,0,0.3622,0.3648,0.3742,0.3789,0.385,0.3964,0.4057,0.4222,0.4329,0.4542,0.462,0.4758,0.478,0.4893,0.483,0.4829,0.4765,0.4554,0.443,0.4279,0.4253,0.4146,0.4059,0.4199,0.419,0.4182,0.4177,0,0.3642,0.3664,0.3724,0.3791,0.3874,0.3958,0.4095,0.4156,0.4342,0.4427,0.4514,0.4539,0.4575,0.4421,0.4394,0.4372,0.4307,0.4393,0.4365,0.3833,0.36,0.3489,0.4122,0.4111,0.4117,0.4122,0.4126,0.4128,0.3659,0.3692,0.3745,0.3803,0.3875,0.3921,0.391,0.403,0.4104,0.4122,0.4285,0.4173,0.411,0.3997,0.3956,0.3708,0.3799,0.3574,0.3605,0.3539,0.3306,0.3743,0.361,0.3613,0.3616,0.3619,0.3621,0,0.3655,0.3694,0.3758,0.3779,0.3772,0.3841,0.3901,0.3817,0.3761,0.3814,0.3772,0.3602,0.3417,0.3372,0.3156,0.298,0.2891,0.2915,0.2772,0.2758,0.3264,0.3103,0.2695,0.2695,0.2696,0.2696,0.2696,0.2696,0.3664,0.3691,0.3698,0.365,0.3641,0.3538,0.3496,0.3385,0.3348,0.3121,0.2964,0.2951,0.3,0.2853,0.2632,0.256,0.2448,0.2226,0.2363,0.278,0.2847,0.291,0.2755,0.2281,0.2281,0.1703,0.1699,0.1696]},{"header":{"parameterUnit":"m.s-1","parameterCategory":2,"la1":30.2991,"la2":30.254,"lo1":-89.0895,"lo2":-89.0444,"dy":0.0017,"dx":0.0017,"nx":28,"ny":28,"refTime":"2024-07-31T03:00:00:Z","depth":"0","parameterNumber":3,"parameterNumberName":"V-component_of_CURRENTS"},"data":[0,0,0,0,0,0,0,0,0,0,0,0,0,0,0,0,0,0,0,0,0,0,0,0,0,0,0,0,0,0,0,0,0,0,0,0,0,0,0,0,0,0,0,0,0,0,0,0,0,0,0,0,0,0,0,0,0,0,0.0317,0.0317,0,0.0307,0.0307,0.0306,0.0278,0.0277,0.0277,0.0276,0.0243,0.0242,0.0242,0,0,0,0,0,0,0,0,0,0,0,0,0,0.0311,0.0312,0.0317,0.0317,0.0317,0.0307,0.0307,0.0306,0.0278,0.0277,0.0277,0.0276,0.0243,0.0242,0.0242,0,0,0,0,0,0,0,0,0,0,0,0,0,0.0309,0.0312,0.0317,0.0301,0.03,0.0307,0.0307,0.0306,0.0278,0.0277,0.0276,0.0276,0.0243,0.0242,0.0242,0.0258,0,0,0.0241,0.024,0,0,0,0,0,0,0,0,0.0309,0.0309,0.0304,0.0302,0.0301,0.0293,0.0292,0.0289,0.0279,0.0287,0.0276,0.0275,0.0258,0.0256,0.0257,0.0256,0.0255,0.024,0.024,0.024,0.024,0,0,0,0,0,0,0,0.0309,0.0309,0.0313,0.0304,0.0302,0.0295,0.0293,0.0292,0.0277,0.0286,0.0284,0.0283,0.0257,0.0257,0.0256,0.0254,0.024,0.024,0.024,0.024,0.0265,0.0265,0,0,0,0,0,0,0.0312,0.031,0.0313,0.0313,0.0303,0.0295,0.0294,0.0296,0.0278,0.0274,0.0284,0.0281,0.0258,0.0256,0.0254,0.0293,0.024,0.024,0.0239,0.0264,0.0265,0.0266,0,0,0,0,0,0,0.0312,0.0312,0.0314,0.0311,0.031,0.0297,0.0299,0.0297,0.0299,0.0276,0.0272,0.0289,0.0258,0.0255,0.0259,0.029,0.0239,0.0239,0.0263,0.0264,0.0265,0.0356,0,0,0,0,0,0,0.0312,0.0312,0.0319,0.0311,0.031,0.033,0.03,0.0297,0.0299,0.0297,0.0279,0.0275,0.0257,0.026,0.0259,0.0289,0.0239,0.0261,0.0263,0.0265,0.0352,0.036,0.0368,0,0,0,0,0,0.0311,0.0329,0.0319,0.0319,0.0318,0.0331,0.0331,0.0317,0.0301,0.0314,0.0297,0.0276,0.027,0.0261,0.0259,0.0289,0.026,0.0263,0.0265,0.0348,0.0359,0.0367,0,0,0,0,0,0,0.033,0.0327,0.0316,0.0331,0.0334,0.0327,0.0338,0.0325,0.0323,0.0317,0.029,0.0286,0.0299,0.0281,0.0271,0.03,0.0261,0.0263,0.0325,0.0335,0.0343,0.0381,0.0238,0,0,0,0,0,0.0337,0.0349,0.0343,0.0357,0.0361,0.035,0.0353,0.0344,0.0339,0.0336,0.032,0.0307,0.0308,0.031,0.0301,0.0322,0.0315,0.0338,0.0346,0.0353,0.0383,0.0392,0.0404,0.0273,0.0273,0.0273,0,0,0.0347,0.0348,0.0355,0.0362,0.0363,0.0387,0.0351,0.0363,0.0384,0.0334,0.0355,0.0333,0.0318,0.0338,0.0343,0.0327,0.0385,0.0356,0.0362,0.0388,0.0396,0.0409,0.0421,0.0274,0.0274,0.0274,0,0,0.0385,0.0378,0.0404,0.0413,0.0419,0.0417,0.0423,0.0418,0.0418,0.0434,0.0403,0.0406,0.0399,0.0402,0.0402,0.0451,0.0423,0.0438,0.0518,0.0526,0.0538,0.0548,0.0551,0.056,0.0447,0.0447,0.0447,0,0.0397,0.0428,0.0415,0.0445,0.0463,0.0436,0.0474,0.0476,0.047,0.0486,0.0452,0.0466,0.0439,0.0489,0.0498,0.0473,0.0467,0.0484,0.0539,0.0549,0.0558,0.0558,0.0567,0.0451,0.0451,0.045,0.045,0,0.0455,0.0481,0.0501,0.0531,0.0548,0.0577,0.0578,0.0591,0.0581,0.0582,0.0616,0.0586,0.0601,0.0585,0.0557,0.0612,0.0583,0.0545,0.052,0.0577,0.0572,0.0581,0.0458,0.0456,0.0455,0.0454,0,0,0.048,0.0532,0.0539,0.0576,0.0598,0.0624,0.0663,0.0702,0.0749,0.0729,0.0797,0.0777,0.0759,0.0758,0.0722,0.0727,0.0765,0.0669,0.0667,0.0682,0.0785,0.0705,0.0706,0.0733,0.0735,0.0737,0.0755,0,0.0532,0.0611,0.062,0.0701,0.0745,0.0745,0.0796,0.0824,0.0838,0.0892,0.0873,0.0914,0.0826,0.0846,0.0836,0.0797,0.0792,0.0764,0.072,0.0719,0.065,0.0715,0.0683,0.0691,0.0763,0.0764,0.0765,0,0.0585,0.0635,0.0724,0.0806,0.0827,0.0871,0.0956,0.0999,0.1055,0.1069,0.1098,0.1081,0.1108,0.1013,0.0985,0.0971,0.0889,0.0839,0.0838,0.0745,0.0656,0.0646,0.0703,0.0603,0.0778,0.0777,0.0776,0,0.0623,0.0708,0.0787,0.0813,0.0897,0.0945,0.0994,0.1057,0.1128,0.1195,0.126,0.1257,0.1293,0.1205,0.1086,0.1046,0.1041,0.0969,0.082,0.0813,0.077,0.0755,0.0737,0.0939,0.0939,0.0939,0.0939,0,0.0679,0.0744,0.0815,0.0862,0.0974,0.1008,0.1129,0.1175,0.1277,0.14,0.1363,0.1462,0.1343,0.1316,0.1167,0.1035,0.1101,0.0862,0.0824,0.0796,0.0784,0.0679,0.0597,0.094,0.0939,0.0939,0.0939,0,0.0721,0.0763,0.0862,0.0958,0.0998,0.1082,0.1221,0.1322,0.1395,0.1562,0.1601,0.1647,0.1616,0.1463,0.1342,0.1159,0.094,0.0942,0.0912,0.0869,0.0607,0.053,0.045,0.0407,0.0798,0.0796,0.0795,0,0.0754,0.0808,0.0928,0.1,0.1052,0.1171,0.1275,0.1375,0.1501,0.1686,0.1796,0.1817,0.185,0.163,0.1322,0.1057,0.092,0.0827,0.073,0.0617,0.0504,0.045,0.0417,0.0712,0.071,0.0708,0.0707,0,0.0824,0.0861,0.0944,0.1079,0.1194,0.1333,0.149,0.1607,0.1764,0.1906,0.2093,0.2133,0.192,0.165,0.1256,0.1056,0.0735,0.0781,0.069,0.0465,0.0384,0.0316,0.0671,0.0692,0.0694,0.0695,0.0695,0.0696,0.0875,0.0943,0.1045,0.1175,0.1311,0.1496,0.1628,0.1813,0.2025,0.2246,0.2277,0.2326,0.1926,0.1392,0.1129,0.0615,0.062,0.044,0.0367,0.0334,0.0257,0.0569,0.0519,0.0519,0.0519,0.052,0.052,0,0.0939,0.1019,0.1138,0.1304,0.1456,0.1522,0.1779,0.1929,0.2188,0.2331,0.2454,0.2234,0.1753,0.1274,0.0566,0.0252,0.0174,0.0106,0.005,0.0046,0.0356,0.0316,0.0189,0.0189,0.0189,0.0189,0.0189,0.0189,0.098,0.1095,0.1152,0.1392,0.1519,0.1746,0.1899,0.2126,0.2273,0.2411,0.2383,0.2341,0.1961,0.0804,0.0085,-0.0064,-0.0199,-0.0287,-0.0325,-0.0102,-0.0075,-0.0049,-0.0101,-0.0314,-0.0315,-0.0585,-0.0588,-0.059]}],[{"header":{"parameterUnit":"m.s-1","parameterCategory":2,"la1":30.2991,"la2":30.254,"lo1":-89.0895,"lo2":-89.0444,"dy":0.0017,"dx":0.0017,"nx":28,"ny":28,"refTime":"2024-07-31T03:00:00:Z","depth":"2","parameterNumber":2,"parameterNumberName":"U-component_of_CURRENTS"},"data":[0,0,0,0,0,0,0,0,0,0,0,0,0,0,0,0,0,0,0,0,0,0,0,0,0,0,0,0,0,0,0,0,0,0,0,0,0,0,0,0,0,0,0,0,0,0,0,0,0,0,0,0,0,0,0,0,0,0,0.285,0.285,0,0.29,0.2901,0.2902,0.2896,0.2895,0.2893,0.2892,0.2896,0.2897,0.2898,0,0,0,0,0,0,0,0,0,0,0,0,0,0.2846,0.2846,0.285,0.2851,0.2851,0.29,0.2901,0.2902,0.2896,0.2894,0.2893,0.2892,0.2895,0.2897,0.2898,0,0,0,0,0,0,0,0,0,0,0,0,0,0.2871,0.2846,0.285,0.285,0.285,0.29,0.2901,0.2903,0.2896,0.2894,0.2893,0.2891,0.2895,0.2897,0.2898,0.2947,0,0,0.2904,0.2905,0,0,0,0,0,0,0,0,0.287,0.2872,0.285,0.285,0.285,0.2886,0.2901,0.2914,0.2897,0.2884,0.2892,0.289,0.2886,0.2889,0.291,0.2947,0.2948,0.2904,0.2905,0.2906,0.2907,0,0,0,0,0,0,0,0.2868,0.287,0.2875,0.285,0.285,0.288,0.2881,0.2904,0.2898,0.2885,0.2883,0.2882,0.2887,0.2908,0.2909,0.2948,0.2904,0.2906,0.2907,0.2908,0.2996,0.2998,0,0,0,0,0,0,0.2849,0.2868,0.2873,0.2876,0.285,0.2881,0.2883,0.288,0.2898,0.2898,0.2884,0.2881,0.2906,0.2907,0.2909,0.2975,0.2906,0.2908,0.2909,0.2995,0.2997,0.2998,0,0,0,0,0,0,0.2849,0.285,0.2871,0.287,0.2874,0.2882,0.288,0.2882,0.2918,0.2897,0.2897,0.2918,0.2904,0.2907,0.2913,0.2974,0.2909,0.2911,0.2994,0.2996,0.2997,0.3101,0,0,0,0,0,0,0.2849,0.2849,0.2857,0.2868,0.2873,0.29,0.2881,0.2884,0.2917,0.2915,0.2927,0.2924,0.2903,0.291,0.2915,0.2976,0.2912,0.2992,0.2995,0.2997,0.3096,0.3106,0.3115,0,0,0,0,0,0.2849,0.2859,0.2857,0.2858,0.2877,0.2901,0.2907,0.291,0.292,0.2938,0.2928,0.2924,0.2929,0.2912,0.2918,0.2981,0.2991,0.2994,0.2997,0.3092,0.3104,0.3115,0,0,0,0,0,0,0.2857,0.286,0.2857,0.2866,0.2882,0.2897,0.2923,0.2933,0.2949,0.2947,0.2936,0.2932,0.2968,0.2952,0.2935,0.3009,0.2963,0.2967,0.3034,0.3046,0.3055,0.3071,0.2914,0,0,0,0,0,0.2864,0.2874,0.2879,0.2889,0.2905,0.2926,0.2944,0.2941,0.2949,0.2958,0.2958,0.2962,0.2988,0.2994,0.3,0.3041,0.3055,0.3084,0.3093,0.3102,0.3116,0.3193,0.3212,0.3007,0.3007,0.3007,0,0,0.2871,0.2872,0.2879,0.2893,0.2915,0.2939,0.2935,0.2961,0.2988,0.2955,0.2995,0.3,0.3004,0.3042,0.3058,0.3034,0.3163,0.3105,0.3113,0.3123,0.3198,0.3218,0.3237,0.3009,0.3009,0.3008,0,0,0.2878,0.2897,0.2906,0.2926,0.2946,0.2964,0.2978,0.3,0.3023,0.3055,0.3045,0.3078,0.3103,0.312,0.3136,0.3205,0.3214,0.3211,0.3277,0.3351,0.337,0.3386,0.342,0.3439,0.3213,0.3214,0.3214,0,0.2888,0.2892,0.2915,0.293,0.2953,0.298,0.3003,0.3042,0.3056,0.3081,0.3071,0.3145,0.3152,0.3223,0.3244,0.3235,0.3258,0.3237,0.3368,0.3384,0.3399,0.343,0.345,0.3219,0.3218,0.3218,0.3217,0,0.2892,0.291,0.2928,0.2956,0.2989,0.3015,0.3059,0.3089,0.3128,0.3159,0.3235,0.3252,0.3297,0.3316,0.3309,0.342,0.3395,0.3377,0.3346,0.3427,0.3453,0.3472,0.3227,0.3225,0.3223,0.3222,0,0,0.2874,0.292,0.2926,0.2946,0.3005,0.3027,0.309,0.3151,0.3215,0.3251,0.334,0.34,0.3426,0.3445,0.3454,0.3518,0.3649,0.35,0.3501,0.3547,0.3797,0.3603,0.3603,0.3661,0.3665,0.3668,0.377,0,0.2873,0.29,0.2928,0.2976,0.3006,0.3057,0.3122,0.3182,0.3259,0.335,0.3411,0.3503,0.3476,0.3527,0.3589,0.3648,0.3703,0.3622,0.37,0.3702,0.3532,0.362,0.3326,0.3377,0.3788,0.3791,0.3793,0,0.2858,0.2884,0.2926,0.2993,0.3015,0.3062,0.3176,0.3228,0.3363,0.3434,0.3532,0.3592,0.3711,0.368,0.3819,0.3771,0.3796,0.3822,0.3826,0.3623,0.3542,0.3363,0.3394,0.3823,0.3821,0.3819,0.3817,0,0.2824,0.2878,0.2915,0.294,0.3028,0.3075,0.3131,0.3258,0.3335,0.3509,0.3596,0.3726,0.3815,0.3888,0.3925,0.3908,0.4051,0.4032,0.3868,0.3854,0.3605,0.356,0.4126,0.4125,0.4125,0.4125,0.4125,0,0.2808,0.2831,0.2912,0.2936,0.3005,0.3073,0.3181,0.3259,0.3415,0.3509,0.3645,0.3742,0.3879,0.3957,0.3982,0.3966,0.4098,0.3899,0.388,0.3625,0.3584,0.3965,0.3945,0.4129,0.4128,0.4127,0.4126,0,0.2765,0.2809,0.2858,0.2959,0.2992,0.305,0.3192,0.3268,0.3423,0.3557,0.3622,0.3804,0.3897,0.3963,0.4083,0.4015,0.4037,0.3982,0.3646,0.3583,0.3782,0.3766,0.386,0.3854,0.3849,0.3845,0.3842,0,0.2741,0.2766,0.2865,0.2894,0.2949,0.3044,0.3104,0.3263,0.3354,0.356,0.3615,0.3764,0.3798,0.3877,0.3824,0.381,0.3921,0.3504,0.3409,0.3789,0.3762,0.3754,0.3745,0.3133,0.3124,0.3117,0.3111,0,0.2709,0.2754,0.2794,0.287,0.294,0.299,0.3096,0.3136,0.3301,0.3418,0.3506,0.3547,0.3609,0.3451,0.3421,0.3378,0.3488,0.335,0.3884,0.3214,0.3103,0.3076,0.3092,0.3046,0.3052,0.3057,0.3061,0.3063,0.2685,0.2707,0.2773,0.2818,0.2892,0.2887,0.2872,0.2958,0.3024,0.3087,0.3247,0.3211,0.323,0.3026,0.2914,0.2837,0.308,0.2953,0.2977,0.3009,0.2875,0.2758,0.2611,0.2615,0.2618,0.2621,0.2624,0,0.2642,0.2659,0.2702,0.2728,0.2739,0.2834,0.2829,0.275,0.2712,0.2814,0.2851,0.26,0.2471,0.2503,0.2268,0.2229,0.2239,0.2148,0.2153,0.2218,0.2276,0.2106,0.1638,0.1635,0.1632,0.1629,0,0,0.2617,0.2603,0.2598,0.256,0.2596,0.2541,0.2494,0.2379,0.2373,0.2267,0.2255,0.241,0.2448,0.2038,0.1955,0.176,0.1989,0.169,0.2484,0.2558,0.2613,0.274,0.255,0,0,0,0,0]},{"header":{"parameterUnit":"m.s-1","parameterCategory":2,"la1":30.2991,"la2":30.254,"lo1":-89.0895,"lo2":-89.0444,"dy":0.0017,"dx":0.0017,"nx":28,"ny":28,"refTime":"2024-07-31T03:00:00:Z","depth":"2","parameterNumber":3,"parameterNumberName":"V-component_of_CURRENTS"},"data":[0,0,0,0,0,0,0,0,0,0,0,0,0,0,0,0,0,0,0,0,0,0,0,0,0,0,0,0,0,0,0,0,0,0,0,0,0,0,0,0,0,0,0,0,0,0,0,0,0,0,0,0,0,0,0,0,0,0,0.0168,0.0168,0,0.0158,0.0158,0.0158,0.0141,0.0141,0.014,0.014,0.011,0.0109,0.0109,0,0,0,0,0,0,0,0,0,0,0,0,0,0.0159,0.0159,0.0168,0.0168,0.0168,0.0158,0.0158,0.0158,0.0141,0.0141,0.014,0.014,0.011,0.011,0.0109,0,0,0,0,0,0,0,0,0,0,0,0,0,0.0157,0.0159,0.0168,0.0158,0.0157,0.0158,0.0158,0.0158,0.0141,0.0141,0.014,0.014,0.011,0.011,0.0109,0.0114,0,0,0.0106,0.0106,0,0,0,0,0,0,0,0,0.0157,0.0158,0.016,0.0159,0.0158,0.015,0.0144,0.0142,0.0141,0.0147,0.014,0.014,0.0122,0.012,0.012,0.0112,0.0111,0.0106,0.0106,0.0106,0.0105,0,0,0,0,0,0,0,0.0157,0.0158,0.0164,0.016,0.0158,0.015,0.0149,0.0143,0.0137,0.0147,0.0145,0.0145,0.0121,0.012,0.0119,0.011,0.0106,0.0106,0.0105,0.0105,0.0102,0.0102,0,0,0,0,0,0,0.016,0.0158,0.0164,0.0164,0.0156,0.015,0.015,0.0153,0.0137,0.0135,0.0145,0.0144,0.0122,0.012,0.0118,0.0136,0.0106,0.0105,0.0104,0.0102,0.0102,0.0102,0,0,0,0,0,0,0.016,0.0161,0.0165,0.016,0.016,0.0151,0.0155,0.0153,0.0156,0.0136,0.0133,0.0149,0.0122,0.0119,0.0117,0.0134,0.0105,0.0104,0.0101,0.0102,0.0102,0.0163,0,0,0,0,0,0,0.016,0.0161,0.0166,0.0161,0.0161,0.0174,0.0156,0.0153,0.0155,0.0154,0.0139,0.0136,0.0121,0.0118,0.0116,0.0132,0.0103,0.0101,0.0101,0.0102,0.0161,0.0166,0.017,0,0,0,0,0,0.016,0.0172,0.0167,0.0167,0.0168,0.0175,0.0174,0.0165,0.0156,0.0164,0.0151,0.0136,0.0121,0.0118,0.0116,0.0132,0.01,0.0101,0.0102,0.0158,0.0165,0.017,0,0,0,0,0,0,0.017,0.0171,0.0165,0.0177,0.0178,0.0172,0.0179,0.0171,0.0167,0.0164,0.0144,0.014,0.0143,0.0128,0.0125,0.0131,0.0107,0.0108,0.0151,0.0157,0.0161,0.0189,0.0103,0,0,0,0,0,0.0175,0.0186,0.0183,0.0193,0.0196,0.0188,0.019,0.0184,0.0178,0.0176,0.0164,0.015,0.0145,0.0143,0.0132,0.014,0.0126,0.0146,0.0151,0.0155,0.0175,0.0168,0.0174,0.0105,0.0105,0.0105,0,0,0.0181,0.0184,0.019,0.0196,0.0196,0.0213,0.0188,0.0196,0.021,0.0174,0.0187,0.0166,0.0149,0.0155,0.0156,0.0146,0.0164,0.0156,0.016,0.0178,0.0169,0.0176,0.0182,0.0106,0.0106,0.0106,0,0,0.0206,0.0204,0.0224,0.0229,0.0233,0.0232,0.0237,0.0232,0.0232,0.0241,0.0216,0.0208,0.0199,0.0192,0.0188,0.0213,0.0187,0.0203,0.0255,0.0247,0.0253,0.0259,0.0236,0.0239,0.0209,0.0209,0.0209,0,0.0214,0.024,0.023,0.0252,0.0266,0.0245,0.0274,0.0272,0.0266,0.0276,0.0253,0.0246,0.0222,0.0241,0.0245,0.0226,0.0212,0.0237,0.0255,0.026,0.0264,0.024,0.0243,0.0212,0.0211,0.0211,0.0211,0,0.0255,0.0276,0.029,0.0314,0.0325,0.0346,0.0344,0.035,0.0344,0.0344,0.0355,0.0321,0.0324,0.0305,0.0285,0.0305,0.0281,0.026,0.0245,0.0275,0.0247,0.0249,0.0216,0.0215,0.0214,0.0213,0,0,0.0275,0.0314,0.032,0.0351,0.0363,0.0383,0.0404,0.0431,0.0466,0.0438,0.0482,0.0447,0.043,0.0423,0.0388,0.0375,0.0378,0.0338,0.0336,0.0324,0.0354,0.0299,0.0295,0.0362,0.0363,0.0363,0.0318,0,0.0315,0.0376,0.0381,0.0444,0.048,0.0475,0.0507,0.0521,0.0531,0.0564,0.0525,0.0551,0.0475,0.0488,0.0459,0.0411,0.0387,0.0392,0.032,0.0318,0.0273,0.0297,0.0309,0.0267,0.0319,0.0319,0.0319,0,0.0357,0.0398,0.0469,0.0532,0.0548,0.0582,0.0645,0.067,0.0695,0.0705,0.0707,0.0684,0.0668,0.0601,0.0522,0.053,0.0452,0.0396,0.0392,0.0327,0.0267,0.0247,0.0267,0.0321,0.0321,0.0321,0.0321,0,0.0396,0.0462,0.0529,0.0549,0.0609,0.0649,0.0682,0.072,0.0776,0.081,0.086,0.0812,0.0819,0.0717,0.0579,0.0566,0.0481,0.0448,0.0317,0.0311,0.0302,0.0294,0.0391,0.0391,0.0392,0.0392,0.0392,0,0.0444,0.0497,0.0561,0.0601,0.0696,0.0712,0.0817,0.0839,0.0909,0.1004,0.0947,0.1003,0.0852,0.0778,0.0632,0.0475,0.0516,0.0338,0.0304,0.032,0.0314,0.0348,0.0343,0.039,0.039,0.0391,0.0391,0,0.0481,0.0516,0.0603,0.0685,0.0722,0.0793,0.0915,0.0996,0.1042,0.1167,0.1192,0.1164,0.1067,0.0882,0.0717,0.0559,0.0405,0.0331,0.0346,0.0315,0.0229,0.0228,0.021,0.0207,0.0206,0.0204,0.0203,0,0.0506,0.0555,0.0671,0.0737,0.0785,0.0894,0.0982,0.106,0.1164,0.1271,0.1347,0.129,0.1249,0.0957,0.0687,0.0417,0.0381,0.0241,0.0215,0.0246,0.0214,0.0216,0.0218,0.022,0.0219,0.0219,0.0218,0,0.0561,0.0602,0.0678,0.0814,0.0923,0.1052,0.1189,0.1288,0.1398,0.1487,0.157,0.1537,0.1276,0.0999,0.062,0.0436,0.0284,0.0214,0.0266,0.0257,0.025,0.0221,0.0224,0.021,0.0211,0.0212,0.0212,0.0212,0.0607,0.067,0.0775,0.0904,0.1033,0.1199,0.1311,0.1451,0.1604,0.1729,0.1699,0.1635,0.1343,0.0848,0.0542,0.0226,0.0246,0.012,0.0126,0.0132,0.0134,0.0123,0.006,0.0059,0.0059,0.0059,0.0059,0,0.0671,0.0744,0.0858,0.1019,0.1162,0.1234,0.1445,0.1541,0.1703,0.1785,0.181,0.1505,0.1199,0.0867,0.0401,0.0118,0.0111,0.0018,0.0079,0.0088,0.0095,0.0097,0.0012,0.0012,0.0011,0.001,0,0,0.0708,0.0821,0.0876,0.1102,0.1224,0.1423,0.1546,0.1667,0.1753,0.1791,0.1754,0.1671,0.1279,0.0932,0.0554,0.0288,0.0252,0.0227,0.0292,0.0417,0.0428,0.0175,0.019,0,0,0,0,0]}],[{"header":{"parameterUnit":"m.s-1","parameterCategory":2,"la1":30.2991,"la2":30.254,"lo1":-89.0895,"lo2":-89.0444,"dy":0.0017,"dx":0.0017,"nx":28,"ny":28,"refTime":"2024-07-31T03:00:00:Z","depth":"4","parameterNumber":2,"parameterNumberName":"U-component_of_CURRENTS"},"data":[0,0,0,0,0,0,0,0,0,0,0,0,0,0,0,0,0,0,0,0,0,0,0,0,0,0,0,0,0,0,0,0,0,0,0,0,0,0,0,0,0,0,0,0,0,0,0,0,0,0,0,0,0,0,0,0,0,0,0.1656,0.1657,0,0.1703,0.1703,0.1704,0.175,0.1751,0.1752,0.1752,0.1809,0.181,0.1811,0,0,0,0,0,0,0,0,0,0,0,0,0,0.1612,0.1612,0.1656,0.1657,0.1658,0.1703,0.1703,0.1704,0.175,0.1751,0.1752,0.1753,0.1809,0.181,0.1811,0,0,0,0,0,0,0,0,0,0,0,0,0,0.1641,0.1612,0.1656,0.1687,0.169,0.1703,0.1703,0.1704,0.175,0.1751,0.1752,0.1753,0.1808,0.181,0.1811,0.1799,0,0,0.1815,0.1815,0,0,0,0,0,0,0,0,0.164,0.1643,0.1681,0.1684,0.1688,0.1722,0.1708,0.1736,0.175,0.1727,0.1752,0.1754,0.178,0.1784,0.179,0.1801,0.1804,0.1815,0.1816,0.1816,0.1817,0,0,0,0,0,0,0,0.1637,0.1641,0.1674,0.1682,0.1686,0.1699,0.1704,0.1714,0.1747,0.1729,0.1732,0.1738,0.1782,0.1788,0.1791,0.1805,0.1815,0.1816,0.1817,0.1817,0.1923,0.1925,0,0,0,0,0,0,0.1631,0.1639,0.1673,0.1676,0.1666,0.1699,0.1705,0.171,0.1747,0.1754,0.1737,0.174,0.1786,0.179,0.1794,0.1871,0.1816,0.1818,0.1818,0.1921,0.1923,0.1925,0,0,0,0,0,0,0.163,0.1634,0.1671,0.1659,0.1665,0.1699,0.1704,0.171,0.175,0.1753,0.176,0.1774,0.1787,0.1792,0.1848,0.187,0.1818,0.1819,0.1919,0.1922,0.1924,0.1967,0,0,0,0,0,0,0.1629,0.1633,0.1653,0.1658,0.1665,0.1702,0.1703,0.171,0.175,0.1755,0.1786,0.1791,0.1788,0.1846,0.1849,0.1871,0.182,0.1916,0.192,0.1923,0.1963,0.1972,0.1978,0,0,0,0,0,0.1627,0.1637,0.1654,0.1659,0.1685,0.1703,0.1708,0.1735,0.1751,0.1773,0.1808,0.1792,0.1872,0.1849,0.1852,0.1874,0.1914,0.1919,0.1923,0.196,0.197,0.1978,0,0,0,0,0,0,0.1627,0.1643,0.1662,0.1678,0.1703,0.1711,0.1736,0.1753,0.1796,0.1816,0.1819,0.1826,0.1885,0.1879,0.1854,0.1919,0.1889,0.1894,0.1916,0.1925,0.1933,0.1937,0.1822,0,0,0,0,0,0.1636,0.1654,0.1671,0.1692,0.1705,0.1729,0.1747,0.1769,0.1797,0.1819,0.1841,0.187,0.1898,0.1914,0.1939,0.197,0.1983,0.1989,0.1996,0.2002,0.2011,0.2061,0.2073,0.194,0.194,0.194,0,0,0.1641,0.1656,0.1667,0.1695,0.1717,0.1737,0.1744,0.1783,0.1809,0.1817,0.1875,0.1904,0.1918,0.1962,0.1985,0.1962,0.2049,0.2008,0.2013,0.2018,0.2067,0.2079,0.2091,0.1943,0.1943,0.1942,0,0,0.1648,0.1676,0.1692,0.1712,0.1754,0.177,0.1789,0.1822,0.1853,0.191,0.1925,0.1974,0.2013,0.2025,0.2034,0.2097,0.2095,0.2108,0.2139,0.2187,0.2198,0.2208,0.2245,0.2257,0.2102,0.2102,0.2102,0,0.1661,0.1675,0.1702,0.172,0.1739,0.1786,0.1806,0.184,0.1893,0.1922,0.1942,0.203,0.2039,0.2083,0.211,0.2112,0.2143,0.2098,0.2196,0.2206,0.2215,0.225,0.2264,0.2105,0.2104,0.2104,0.2104,0,0.1666,0.1691,0.1702,0.1741,0.1769,0.1797,0.1839,0.1887,0.1938,0.197,0.2055,0.2091,0.2143,0.215,0.215,0.2217,0.222,0.2205,0.2167,0.2231,0.2264,0.2277,0.2108,0.2107,0.2107,0.2106,0,0,0.1653,0.1697,0.1705,0.1724,0.1783,0.1802,0.186,0.1915,0.1963,0.2037,0.2104,0.2159,0.2204,0.2219,0.2233,0.2268,0.2355,0.2271,0.2272,0.2299,0.2472,0.2276,0.2271,0.2366,0.2369,0.2371,0.247,0,0.1654,0.1683,0.1709,0.1747,0.1763,0.182,0.1863,0.1927,0.2002,0.2083,0.2145,0.2227,0.2221,0.2274,0.231,0.2352,0.2393,0.233,0.2416,0.2418,0.2227,0.228,0.2379,0.248,0.2483,0.2485,0.2487,0,0.1644,0.1666,0.1701,0.1747,0.1761,0.1801,0.1891,0.1939,0.2054,0.2121,0.222,0.2285,0.2371,0.2364,0.2464,0.2433,0.2466,0.2486,0.249,0.2298,0.2244,0.2405,0.251,0.2509,0.2507,0.2505,0.2504,0,0.1609,0.1656,0.1687,0.1702,0.1766,0.1807,0.1859,0.1961,0.2018,0.2175,0.2255,0.2358,0.2446,0.2501,0.2547,0.2532,0.2646,0.2623,0.2476,0.2463,0.2592,0.2581,0.2702,0.2702,0.2702,0.2701,0.2701,0,0.1575,0.1596,0.1682,0.1691,0.1734,0.18,0.1871,0.1945,0.2076,0.2152,0.2289,0.2367,0.2493,0.2566,0.2587,0.256,0.2683,0.249,0.2475,0.2609,0.2598,0.2602,0.2589,0.2705,0.2704,0.2703,0.2703,0,0.1508,0.1566,0.1601,0.1687,0.1715,0.1756,0.1864,0.191,0.2063,0.2181,0.2247,0.2413,0.2503,0.2584,0.2677,0.2594,0.2596,0.256,0.2706,0.2697,0.2378,0.2367,0.2407,0.2401,0.2396,0.2392,0.2388,0,0.1465,0.1483,0.1585,0.161,0.1651,0.1721,0.1754,0.1892,0.195,0.2175,0.2215,0.2383,0.247,0.2454,0.2531,0.255,0.2518,0.2499,0.2424,0.2366,0.2349,0.2346,0.2341,0.238,0.2378,0.2377,0.2376,0,0.1375,0.1439,0.1467,0.1525,0.1574,0.1608,0.1685,0.1716,0.1883,0.2048,0.2153,0.2216,0.2307,0.2351,0.2381,0.2384,0.2491,0.2444,0.2454,0.2384,0.2333,0.232,0.2322,0.2358,0.236,0.2362,0.2363,0,0.1309,0.1318,0.1377,0.1409,0.1467,0.1477,0.1531,0.1598,0.1677,0.1938,0.196,0.214,0.2295,0.2266,0.2285,0.2273,0.2237,0.215,0.2175,0.2196,0.2071,0.1972,0.1877,0,0,0,0,0,0.1241,0.1229,0.1247,0.1277,0.1333,0.1375,0.1464,0.1529,0.1701,0.173,0.185,0.1933,0.1994,0.2064,0.2009,0.2151,0.2218,0.207,0.2125,0.2257,0.2278,0.2144,0,0,0,0,0,0,0.1186,0.1202,0.1198,0.1154,0.1167,0.1209,0.1271,0.139,0.141,0.1611,0.1655,0.1811,0.189,0.2031,0.1982,0.1998,0.1984,0.2174,0.2168,0.2246,0.2265,0.2281,0.215,0,0,0,0,0]},{"header":{"parameterUnit":"m.s-1","parameterCategory":2,"la1":30.2991,"la2":30.254,"lo1":-89.0895,"lo2":-89.0444,"dy":0.0017,"dx":0.0017,"nx":28,"ny":28,"refTime":"2024-07-31T03:00:00:Z","depth":"4","parameterNumber":3,"parameterNumberName":"V-component_of_CURRENTS"},"data":[0,0,0,0,0,0,0,0,0,0,0,0,0,0,0,0,0,0,0,0,0,0,0,0,0,0,0,0,0,0,0,0,0,0,0,0,0,0,0,0,0,0,0,0,0,0,0,0,0,0,0,0,0,0,0,0,0,0,0.013,0.013,0,0.0125,0.0125,0.0125,0.0121,0.0121,0.0121,0.0121,0.0102,0.0102,0.0101,0,0,0,0,0,0,0,0,0,0,0,0,0,0.0119,0.0119,0.013,0.013,0.013,0.0125,0.0125,0.0125,0.0121,0.0121,0.0121,0.0121,0.0102,0.0102,0.0101,0,0,0,0,0,0,0,0,0,0,0,0,0,0.012,0.0119,0.013,0.0127,0.0127,0.0125,0.0125,0.0125,0.0121,0.0121,0.0121,0.0121,0.0102,0.0102,0.0101,0.0098,0,0,0.0099,0.0099,0,0,0,0,0,0,0,0,0.012,0.012,0.0128,0.0128,0.0127,0.0123,0.0114,0.0115,0.0121,0.0123,0.0121,0.0121,0.0108,0.0107,0.0106,0.0097,0.0096,0.0099,0.0098,0.0098,0.0098,0,0,0,0,0,0,0,0.012,0.012,0.0128,0.0128,0.0127,0.0121,0.0121,0.0114,0.0115,0.0123,0.0122,0.0122,0.0108,0.0107,0.0106,0.0096,0.0099,0.0098,0.0098,0.0097,0.0081,0.0081,0,0,0,0,0,0,0.0122,0.012,0.0128,0.0128,0.0123,0.0121,0.0121,0.0125,0.0116,0.0115,0.0122,0.0122,0.0108,0.0106,0.0105,0.0112,0.0098,0.0097,0.0097,0.0081,0.0081,0.0081,0,0,0,0,0,0,0.0121,0.0122,0.0128,0.0124,0.0124,0.0121,0.0125,0.0125,0.0128,0.0116,0.0114,0.0127,0.0108,0.0106,0.0104,0.0111,0.0097,0.0096,0.0081,0.0081,0.0081,0.0119,0,0,0,0,0,0,0.0121,0.0123,0.0127,0.0124,0.0124,0.0133,0.0125,0.0124,0.0128,0.0128,0.0119,0.0117,0.0108,0.0105,0.0103,0.011,0.0096,0.0081,0.0081,0.0081,0.0117,0.012,0.0122,0,0,0,0,0,0.0121,0.0129,0.0127,0.0128,0.013,0.0133,0.0133,0.013,0.0128,0.0133,0.0126,0.0117,0.0103,0.0105,0.0102,0.0109,0.0081,0.0081,0.0081,0.0116,0.0119,0.0122,0,0,0,0,0,0,0.0125,0.0129,0.0127,0.0135,0.0136,0.0133,0.0137,0.0134,0.0133,0.0133,0.012,0.0118,0.0117,0.0106,0.0108,0.0102,0.009,0.0089,0.0117,0.012,0.0122,0.0136,0.0095,0,0,0,0,0,0.0128,0.0137,0.0136,0.0143,0.0145,0.0142,0.0143,0.0141,0.0139,0.0138,0.0131,0.0122,0.0114,0.0113,0.0102,0.0104,0.0082,0.0104,0.0106,0.0109,0.0117,0.0086,0.0087,0.0081,0.0081,0.0081,0,0,0.0131,0.0135,0.014,0.0145,0.0145,0.0155,0.0143,0.0148,0.0157,0.0136,0.0145,0.0129,0.0115,0.0114,0.0113,0.0109,0.0097,0.0109,0.0111,0.0118,0.0086,0.0087,0.0087,0.0081,0.0081,0.0081,0,0,0.0145,0.0146,0.0159,0.0163,0.0166,0.0167,0.017,0.0169,0.017,0.0175,0.0159,0.0148,0.0141,0.013,0.0124,0.0133,0.0107,0.0128,0.0156,0.0126,0.0127,0.0127,0.0093,0.009,0.0133,0.0133,0.0133,0,0.0149,0.0169,0.0163,0.0176,0.0187,0.0175,0.0195,0.0192,0.019,0.0196,0.0183,0.0169,0.0149,0.0152,0.0151,0.0139,0.0117,0.0149,0.013,0.013,0.0129,0.0095,0.0091,0.0135,0.0135,0.0134,0.0134,0,0.0173,0.019,0.0198,0.0215,0.0224,0.0238,0.0236,0.0241,0.0239,0.0236,0.0236,0.0207,0.0202,0.0187,0.0173,0.0164,0.0147,0.0134,0.0126,0.0132,0.0095,0.009,0.0137,0.0137,0.0136,0.0136,0,0,0.0183,0.0212,0.0216,0.0242,0.025,0.0266,0.0277,0.0293,0.0315,0.0292,0.031,0.0279,0.0262,0.0253,0.0227,0.0197,0.0163,0.0169,0.0167,0.0141,0.0095,0.0085,0.0079,0.0148,0.0148,0.0147,0.0068,0,0.0209,0.0252,0.0256,0.0304,0.0331,0.0329,0.0348,0.0356,0.0358,0.0367,0.0328,0.0333,0.0288,0.029,0.025,0.0185,0.0154,0.0186,0.0089,0.0086,0.0081,0.0074,0.0146,0.0064,0.0063,0.0062,0.0062,0,0.0234,0.0265,0.0318,0.037,0.0382,0.0408,0.0452,0.0467,0.0464,0.0463,0.0448,0.0418,0.0372,0.0334,0.0226,0.0249,0.018,0.0123,0.0119,0.0097,0.0068,0.0057,0.0053,0.0053,0.0054,0.0055,0.0055,0,0.026,0.0312,0.0365,0.038,0.0427,0.0459,0.0487,0.0502,0.0534,0.053,0.0543,0.048,0.0456,0.0358,0.0231,0.0232,0.0104,0.0088,0.0016,0.0014,0.003,0.0031,0.0019,0.002,0.002,0.002,0.002,0,0.029,0.0333,0.0389,0.0419,0.0496,0.051,0.0583,0.0596,0.0622,0.0664,0.0601,0.0602,0.0462,0.037,0.0251,0.0113,0.0116,0.0021,-0.0005,0.0046,0.0049,0.0026,0.0027,0.0017,0.0018,0.0018,0.0019,0,0.0311,0.0342,0.0411,0.048,0.0513,0.057,0.0658,0.0706,0.0717,0.0766,0.0769,0.0691,0.0569,0.0419,0.025,0.0149,0.0013,-0.0032,0.0031,0.0009,-0.0062,-0.0057,-0.0118,-0.0119,-0.012,-0.0121,-0.0121,0,0.0325,0.0363,0.0462,0.0515,0.0556,0.0643,0.0707,0.0754,0.0802,0.0818,0.0836,0.0744,0.0671,0.0421,0.0251,0.0025,-0.0004,-0.0078,-0.0068,-0.0056,-0.0075,-0.007,-0.0064,-0.0122,-0.0123,-0.0123,-0.0123,0,0.0355,0.0391,0.045,0.0559,0.0645,0.0738,0.0826,0.0867,0.0916,0.093,0.0899,0.0778,0.0637,0.043,0.0255,0.0091,-0.0036,-0.0087,-0.0086,-0.0078,-0.0062,-0.0079,-0.0073,-0.0126,-0.0125,-0.0125,-0.0125,0,0.0379,0.0425,0.0504,0.0602,0.0704,0.0796,0.0845,0.0901,0.095,0.0965,0.0947,0.0799,0.0716,0.0463,0.0296,0.0136,0.0097,0.0042,0.0036,0.0037,0.01,0.0144,0.0124,0,0,0,0,0,0.0405,0.0457,0.0542,0.0648,0.0744,0.081,0.0908,0.0945,0.0991,0.0986,0.0974,0.0846,0.0608,0.049,0.0331,0.0265,0.0055,0.0071,-0.0014,-0.0141,-0.0138,-0.0091,0,0,0,0,0,0,0.0421,0.05,0.054,0.0662,0.0739,0.0855,0.092,0.0957,0.0947,0.0963,0.0834,0.0799,0.0556,0.0702,0.0325,0.0276,0.0198,-0.0035,-0.0039,-0.0143,-0.014,-0.0138,-0.0088,0,0,0,0,0]}]]